Location: *
(46.3500°N, 10.9000°E)
Time: 02:47:18
(UTC+00:00)

ISS - Visible Passes

Search period start: 19 August 2022 00:00
Search period end: 29 August 2022 00:00
Orbit: 412 x 420 km, 51.6° (Epoch: 18 August)

Date Brightness Start Highest point End Pass type
(mag) Time Alt. Az. Time Alt. Az. Time Alt. Az.
24 Aug -1.9 03:29:31 10° SSW 03:32:16 23° SE 03:35:00 10° E visible
25 Aug -1.4 02:42:30 12° SSE 02:43:48 15° SE 02:45:46 10° E visible
26 Aug -3.3 03:28:50 15° SW 03:31:29 55° SSE 03:34:47 10° ENE visible
27 Aug -2.7 02:42:12 30° S 02:42:54 34° SE 02:45:59 10° ENE visible
28 Aug -1.4 01:55:31 18° ESE 01:55:31 18° ESE 01:57:01 10° E visible
28 Aug -3.7 03:28:24 17° WSW 03:30:50 71° NNW 03:34:11 10° ENE visible
